Regional Weather Roundup
Issued by NWS

Home | Current Version | Previous Version | Graphics & Text | Print | Product List | Glossary On
Versions: 1 2 3 4 5 6 7 8 9 10 11 12 13 14 15 16 17 18 19 20 21 22 23 24 25 26 27 28 29 30 31 32 33 34 35 36 37 38 39 40 41 42 43 44 45 46 47 48 49 50
000
ASUS43 KLOT 031506
RWRIL

ILLINOIS REGIONAL WEATHER ROUNDUP
NATIONAL WEATHER SERVICE CHICAGO/ROMEOVILLE IL
900 AM CST TUE MAR 03 2015

NOTE: "FAIR" INDICATES FEW OR NO CLOUDS BELOW 12,000 FEET WITH NO
SIGNIFICANT WEATHER AND/OR OBSTRUCTIONS TO VISIBILITY.

* THESE STATIONS ARE NOT UNDER NWS QUALITY CONTROL. THEY ALSO MAY NOT
  REPORT WEATHER SUCH AS PRECIPITATION OR FOG.

ILZ001-002-007-009-015-016-024-031600-
NORTHWEST ILLINOIS

CITY           SKY/WX    TMP DP  RH WIND       PRES   REMARKS
MOLINE         CLOUDY    30  27  88 S8        29.72F FOG     WCI  22
STERLING*      CLOUDY    30  28  93 S9        29.73F WCI  22
SAVANNA*       MIX PCPN  30  28  92 S14       29.72F WCI  20
$$

ILZ003-004-008-010-011-017-018-031600-
NORTH CENTRAL ILLINOIS

CITY           SKY/WX    TMP DP  RH WIND       PRES   REMARKS
ROCKFORD       FRZ DRZL  29  26  89 S23G35    29.75F WCI  15
FREEPORT*      CLOUDY    29  27  92 S17G29    29.72F FOG     WCI  17
ROCHELLE*      LGT RAIN  29  28  96 S8        29.74F WCI  21
DE KALB*       CLOUDY    26  25  96 S13       29.76S FOG     WCI  15
PERU*          CLOUDY    30  29  94 S17       29.76F FOG     WCI  19
$$

ILZ005-006-012>014-019>023-031600-
NORTHEAST ILLINOIS

CITY           SKY/WX    TMP DP  RH WIND       PRES   REMARKS
CHICAGO-OHARE  FRZ RAIN  29  26  89 S20       29.75F FOG     WCI  16
CHICAGO-MIDWAY FRZ RAIN  30  27  88 S15       29.78F FOG     WCI  19
AURORA         CLOUDY    30  26  85 S21G29    29.77F FOG     WCI  17
LANSING*       MIX PCPN  29  27  94 S14G23    29.80F WCI  18
JOLIET*        DRIZZLE   30  28  93 S13G18    29.79F WCI  20
WAUKEGAN       FRZ RAIN  28  27  96 S16G28    29.74F FOG     WCI  16
DUPAGE AIRPORT CLOUDY    28  26  92 S18       29.75F FOG     WCI  15
KANKAKEE*      MIX PCPN  31  29  94 SE12      29.80F WCI  21
WHEELING       CLOUDY    29  26  89 S16G24    29.77F FOG     WCI  17
MORRIS*        CLOUDY    30  29  97 S16G23    29.77F FOG     WCI  18
ROMEOVILLE*    CLOUDY    29  28  96 S14       29.77F FOG     WCI  19
NORTHERLY ISL    N/A     29  27  92 SE8         N/A  WCI  21
$$

LMZ740>746-031600-
SOUTHERN LAKE MICHIGAN

STATION/POSITION SKY/WX   TEMP    WIND        PRES    VSBY  WAVE
                          AIR SEA DIR/SP/G                  HT/PER
                          (F)     (DEG/KT/KT) (MB)    (MI)  (FT/S)
WAUKEGAN HARBOR            28                   N/A
HARRISON CRIB              28     160/  4/  5   N/A
BURNHAM HARBOR             29     160/  6/ 13   N/A
CALUMET HARBOR                    150/ 11/ 16   N/A
MICHIGAN CITY              27     130/ 13/ 17   N/A
$$

ILZ025>027-034>036-040-047-049-050-058-095>099-031600-
WEST-CENTRAL ILLINOIS

CITY           SKY/WX    TMP DP  RH WIND       PRES   REMARKS
QUINCY         MIX PCPN  32  30  92 S10       29.74F VSB 1   WCI  24
GALESBURG*     LGT SNOW  30  30  99 S10       29.73F WCI  21
MACOMB*        CLOUDY    31  31  99 S12       29.76F WCI  22
JACKSONVILLE*  CLOUDY    35  31  88 S15       29.78F FOG     WCI  25
PITTSFIELD*    CLOUDY    34  31  90 S9        29.78F FOG     WCI  27
$$

ILZ028>032-037-038-041>044-048-051>054-059>061-031600-
CENTRAL ILLINOIS

CITY           SKY/WX    TMP DP  RH WIND       PRES   REMARKS
PONTIAC        CLOUDY    32  30  94 S18G24    29.77F FOG     WCI  20
BLOOMINGTON    CLOUDY    32  31  96 S18       29.76F FOG     WCI  20
DECATUR        CLOUDY    33  31  92 S14       29.84F FOG     WCI  23
PEORIA         FRZ RAIN  32  29  88 S20G25    29.76S VSB 1   WCI  20
LACON*         CLOUDY    31  28  90 S9        29.76R WCI  23
LINCOLN*       DRIZZLE   33  32  95 S12       29.81F WCI  24
SPRINGFIELD    CLOUDY    34  30  85 S14       29.80F FOG     WCI  25
TAYLORVILLE    CLOUDY    32  32 100 S17       29.82F FOG     WCI  21
$$

ILZ033-039-045-046-055>057-062-063-031600-
EAST-CENTRAL ILLINOIS

CITY           SKY/WX    TMP DP  RH WIND       PRES   REMARKS
CHAMPAIGN      CLOUDY    32  31  96 S17       29.86F FOG     WCI  21
DANVILLE*      DRIZZLE   30  29  95 S10       29.84F WCI  21
RANTOUL*       DRIZZLE   32  31  95 S16       29.86F WCI  21
MATTOON        LGT SNOW  32  30  92 S16G24    29.85F FOG     WCI  21
PARIS*         LGT RAIN  32  32  98 S8G20     29.91R WCI  25
$$

ILZ079-100>102-031600-
SOUTHWEST ILLINOIS

CITY           SKY/WX    TMP DP  RH WIND       PRES   REMARKS
ALTON          CLOUDY    36  34  93 S17       29.82F FOG     WCI  25
BELLEVILLE     CLOUDY    36  35  96 VRB6G22   29.84F WCI  32
CAHOKIA*       CLOUDY    39  35  86 S8        29.83F WCI  33
SPARTA*        CLOUDY    36  34  93 S12G18    29.89F FOG     WCI  27
$$

ILZ064>066-069>071-074>076-080>082-084>086-088>090-092>094-031600-
SOUTH-CENTRAL ILLINOIS

CITY           SKY/WX    TMP DP  RH WIND       PRES   REMARKS
CARBONDALE     CLOUDY    40  37  89 S22G30    29.92F
CAIRO*         FOG       41  40  97 S6        30.00F VSB 1/4
EFFINGHAM*     LGT RAIN  34  32  92 SE7       29.91F WCI  28
MARION         CLOUDY    41  39  93 S17       29.94F FOG
MT. VERNON     CLOUDY    37  34  87 S13       29.91F WCI  29
CENTRALIA*     CLOUDY    37  34  90 S17G23    29.89F FOG     WCI  27
SALEM*         DRIZZLE   39  36  87 S14       29.90S WCI  31
METROPOLIS*    FOG       41  41 100 S5        29.99F VSB 1/4
$$

ILZ067-068-072-073-078-083-087-091-031600-
SOUTHEAST ILLINOIS

CITY           SKY/WX    TMP DP  RH WIND       PRES   REMARKS
LAWRENCEVILLE  MIX PCPN  35  32  88 S13       29.93F FOG     WCI  26
FLORA*         CLOUDY    35  33  92 S14       29.90F WCI  26
FAIRFIELD*     CLOUDY    37  35  92 S13       29.91F FOG     WCI  28
HARRISBURG*    CLOUDY    42  42  99 S15       29.97F FOG
ROBINSON*      RAIN      34  32  94 S10       29.92F WCI  26
CARMI*         CLOUDY    39  37  95 S13       29.95F FOG     WCI  31
$$

ABBREVIATIONS USED IN REMARKS
   TC - TEMPERATURE IN CELSIUS
  WCI - WIND CHILL INDEX
   HX - HEAT INDEX
  VSB - VISIBILITY
$$



USA.gov is the U.S. government's official web portal to all federal, state and local government web resources and services.